This is the latest recevied weather packets stored in our database for station/object TG8ARF-18. If no packets are shown the sender has not sent any weather packets the latest 10 day(s).
| Time | Temp. | Humidity | Pressure | Rain* | Wind** | Luminosity | Snow |
|---|---|---|---|---|---|---|---|
| 1778294875 | 17.22° C | 90% | 1015 hPa | 0 mm | - | - | - |
| 1778294274 | 16.11° C | 90% | 1015 hPa | 0 mm | - | - | - |
| 1778293674 | 15° C | 90% | 1015 hPa | 0 mm | - | - | - |
| 1778293073 | 17.22° C | 89% | 1015 hPa | 0 mm | - | - | - |
| 1778292473 | 16.11° C | 89% | 1015 hPa | 0 mm | - | - | - |
| 1778291872 | 15° C | 89% | 1015 hPa | 0 mm | - | - | - |
| 1778291271 | 17.78° C | 89% | 1015 hPa | 0 mm | - | - | - |
| 1778290671 | 18.33° C | 89% | 1015 hPa | 0 mm | - | - | - |
| 1778290070 | 18.89° C | 87% | 1014 hPa | 0.25 mm | - | - | - |
| 1778289470 | 18.89° C | 87% | 1014 hPa | 0.25 mm | - | - | - |
| 1778288869 | 18.89° C | 86% | 1013 hPa | 0.51 mm | - | - | - |
| 1778288268 | 18.89° C | 87% | 1013 hPa | 0.51 mm | - | - | - |
| 1778287668 | 18.89° C | 87% | 1013 hPa | 1.52 mm | - | - | - |
| 1778287067 | 18.89° C | 88% | 1013 hPa | 1.27 mm | - | - | - |
| 1778286466 | 18.33° C | 86% | 1013 hPa | 0 mm | - | - | - |
| 1778285866 | 18.33° C | 86% | 1013 hPa | 0 mm | - | - | - |
| 1778285266 | 17.22° C | 86% | 1013 hPa | 0 mm | - | - | - |
| 1778284665 | 18.33° C | 87% | 1013 hPa | 0 mm | - | - | - |
| 1778284064 | 17.22° C | 87% | 1013 hPa | 0 mm | - | - | - |
| 1778283464 | 18.89° C | 82% | 1013 hPa | 0 mm | - | - | - |
| 1778282863 | 17.78° C | 82% | 1013 hPa | 0 mm | - | - | - |
| 1778282263 | 17.78° C | 82% | 1013 hPa | 0 mm | - | - | - |
| 1778281662 | 18.89° C | 86% | 1013 hPa | 0 mm | - | - | - |
| 1778281062 | 18.89° C | 86% | 1013 hPa | 0 mm | - | - | - |
| 1778280461 | 17.78° C | 86% | 1013 hPa | 0 mm | - | - | - |
* Rain latest hour (hover to see other rain measurements)
** Current wind speed in m/s (hover to see current wind gust speed)